Tracking 22879 objects as of 20-Apr-2021
HD Live streaming from Space Station
objects crossing your sky now

USA 7

Track USA 7 now!
USA 7 is classified as:


NORAD ID: 15453
Int'l Code: 1984-129A
Perigee: 36,181.2 km
Apogee: 36,210.4 km
Inclination: 14.5 °
Period: 1,456.7 minutes
Semi major axis: 42566 km
RCS: Unknown
Launch date: December 22, 1984
Source: United States (US)
Launch site: AIR FORCE EASTERN TEST RANGE (AFETR)
aabbcc
Your satellite tracking list
Your tracking list is empty




NASA's NSSDC Master Catalog

Two Line Element Set (TLE):
1 15453U 84129A   21109.63533108  .00000027  00000-0  00000-0 0  9993
2 15453  14.4621 336.5641 0003427  60.9321 289.5926  0.98854580  7413
Source of the keplerian elements: McCants